time, Switch, Flow(0), Analog(2)
yyyy/mm/dd HH:MM:SS.fff, True=FILTERED|False=TOTAL, L/min, V
2023/06/14 05:00:01.771, True, 4.973, 0.142596
2023/06/14 05:00:02.267, True, 4.381, 0.144350
2023/06/14 05:00:02.772, True, 4.644, 0.143511
2023/06/14 05:00:03.276, True, 4.309, 0.142901
2023/06/14 05:00:03.772, True, 4.043, 0.142748
2023/06/14 05:00:04.276, True, 2.658, 0.144198
2023/06/14 05:00:04.780, True, 1.324, 0.146181
2023/06/14 05:00:05.276, True, 0.674, 0.144503
2023/06/14 05:00:05.780, True, 0.664, 0.144350
2023/06/14 05:00:06.284, True, 0.664, 0.144808
2023/06/14 05:00:06.780, True, 0.674, 0.145113
2023/06/14 05:00:07.283, True, 0.332, 0.145037
2023/06/14 05:00:07.788, True, 0.662, 0.145495
2023/06/14 05:00:08.284, True, 0.675, 0.142519
2023/06/14 05:00:08.787, True, 0.662, 0.141985
2023/06/14 05:00:09.292, True, 0.332, 0.142672
2023/06/14 05:00:09.788, True, 0.674, 0.144198
2023/06/14 05:00:10.292, True, 0.332, 0.144274
2023/06/14 05:00:10.796, True, 0.663, 0.143587
2023/06/14 05:00:11.292, True, 0.338, 0.143435
2023/06/14 05:00:11.796, True, 0.662, 0.145876
2023/06/14 05:00:12.292, True, 0.337, 0.146868
2023/06/14 05:00:12.796, True, 0.663, 0.143740
2023/06/14 05:00:13.299, True, 0.332, 0.144274
2023/06/14 05:00:13.804, True, 0.663, 0.144579
2023/06/14 05:00:14.300, True, 0.675, 0.143511
2023/06/14 05:00:14.804, True, 0.331, 0.145037
2023/06/14 05:00:15.307, True, 0.663, 0.144350
2023/06/14 05:00:15.804, True, 0.337, 0.145495
2023/06/14 05:00:16.308, True, 0.663, 0.146639
2023/06/14 05:00:16.812, True, 0.332, 0.146487
2023/06/14 05:00:17.307, True, 0.674, 0.144961
2023/06/14 05:00:17.811, True, 0.332, 0.147173
2023/06/14 05:00:18.315, True, 0.664, 0.142977
2023/06/14 05:00:18.811, True, 0.337, 0.145571
2023/06/14 05:00:19.315, True, 0.663, 0.144121
2023/06/14 05:00:19.819, True, 0.664, 0.142443
2023/06/14 05:00:20.316, True, 0.337, 0.146334
2023/06/14 05:00:20.820, True, 0.662, 0.143053
2023/06/14 05:00:21.324, True, 0.332, 0.141833
2023/06/14 05:00:21.828, True, 0.663, 0.144198
2023/06/14 05:00:22.324, True, 0.337, 0.143282
2023/06/14 05:00:22.828, True, 0.663, 0.144427
2023/06/14 05:00:23.332, True, 0.332, 0.144121
2023/06/14 05:00:23.828, True, 0.674, 0.143359
2023/06/14 05:00:24.332, True, 0.332, 0.144121
2023/06/14 05:00:24.835, True, 0.663, 0.144884
2023/06/14 05:00:25.340, True, 0.332, 0.142977
2023/06/14 05:00:25.836, True, 0.674, 0.143206
2023/06/14 05:00:26.340, True, 0.332, 0.144884
2023/06/14 05:00:26.844, True, 0.663, 0.144045
2023/06/14 05:00:27.340, True, 0.674, 0.143740
2023/06/14 05:00:27.843, True, 0.332, 0.142901
2023/06/14 05:00:28.340, True, 0.674, 0.143282
2023/06/14 05:00:28.844, True, 0.332, 0.144121
2023/06/14 05:00:29.348, True, 0.663, 0.143053
2023/06/14 05:00:29.844, True, 0.337, 0.145647
2023/06/14 05:00:30.348, True, 0.663, 0.144350
2023/06/14 05:00:30.852, True, 0.332, 0.141756
2023/06/14 05:00:31.348, True, 0.674, 0.142672
2023/06/14 05:00:31.852, True, 0.332, 0.146029
2023/06/14 05:00:32.356, True, 0.663, 0.143587
2023/06/14 05:00:32.852, True, 0.337, 0.145266
2023/06/14 05:00:33.356, True, 0.663, 0.146334
2023/06/14 05:00:33.860, True, 0.332, 0.144121
2023/06/14 05:00:34.356, True, 0.674, 0.143130
2023/06/14 05:00:34.860, True, 0.332, 0.146181
2023/06/14 05:00:35.364, True, 0.663, 0.144198
2023/06/14 05:00:35.860, True, 0.337, 0.143206
2023/06/14 05:00:36.364, True, 0.664, 0.146258
2023/06/14 05:00:36.868, True, 0.331, 0.142519
2023/06/14 05:00:37.364, True, 0.674, 0.144198
2023/06/14 05:00:37.868, True, 0.332, 0.140841
2023/06/14 05:00:38.371, True, 0.663, 0.141985
2023/06/14 05:00:38.876, True, 0.332, 0.144274
2023/06/14 05:00:39.372, True, 0.674, 0.143664
2023/06/14 05:00:39.876, True, 0.663, 0.144045
2023/06/14 05:00:40.380, True, 0.332, 0.145495
2023/06/14 05:00:40.876, True, 0.674, 0.145418
2023/06/14 05:00:41.380, True, 0.332, 0.145266
2023/06/14 05:00:41.884, True, 0.663, 0.145190
2023/06/14 05:00:42.380, True, 0.337, 0.145190
2023/06/14 05:00:42.884, True, 0.663, 0.144198
2023/06/14 05:00:43.380, True, 0.674, 0.144427
2023/06/14 05:00:43.884, True, 0.332, 0.143969
2023/06/14 05:00:44.388, True, 0.663, 0.144732
2023/06/14 05:00:44.892, True, 0.332, 0.144121
2023/06/14 05:00:45.388, True, 0.675, 0.145418
2023/06/14 05:00:45.892, True, 0.331, 0.144579
2023/06/14 05:00:46.396, True, 0.663, 0.143130
2023/06/14 05:00:46.892, True, 0.337, 0.144656
2023/06/14 05:00:47.396, True, 0.663, 0.142977
2023/06/14 05:00:47.900, True, 0.332, 0.144427
2023/06/14 05:00:48.396, True, 0.675, 0.143893
2023/06/14 05:00:48.899, True, 0.331, 0.145266
2023/06/14 05:00:49.404, True, 0.663, 0.144274
2023/06/14 05:00:49.900, True, 0.337, 0.144198
2023/06/14 05:00:50.403, True, 0.664, 0.145418
2023/06/14 05:00:50.908, True, 0.331, 0.146944
2023/06/14 05:00:51.404, True, 0.674, 0.144656
2023/06/14 05:00:51.908, True, 0.331, 0.144427
2023/06/14 05:00:52.412, True, 0.664, 0.143206
2023/06/14 05:00:52.908, True, 0.337, 0.144350
2023/06/14 05:00:53.412, True, 0.331, 0.141604
2023/06/14 05:00:53.916, True, 0.663, 0.145800
2023/06/14 05:00:54.412, True, 0.337, 0.142290
2023/06/14 05:00:54.916, True, 0.664, 0.143969
2023/06/14 05:00:55.420, True, 0.331, 0.145190
2023/06/14 05:00:55.916, True, 0.674, 0.142367
2023/06/14 05:00:56.420, True, 0.332, 0.144732
2023/06/14 05:00:56.924, True, 0.664, 0.144961
2023/06/14 05:00:57.419, True, 0.336, 0.144732
2023/06/14 05:00:57.924, True, 0.664, 0.144350
2023/06/14 05:00:58.420, True, 0.336, 0.145113
2023/06/14 05:00:58.924, True, 0.664, 0.143816
2023/06/14 05:00:59.428, True, 0.331, 0.145876
2023/06/14 05:00:59.924, True, 0.674, 0.143359
2023/06/14 05:01:00.428, True, 0.332, 0.143816
2023/06/14 05:01:00.932, True, 0.663, 0.146029
2023/06/14 05:01:01.428, True, 0.337, 0.142824
2023/06/14 05:01:01.931, True, 0.664, 0.143053
2023/06/14 05:01:02.436, True, 0.331, 0.143282
2023/06/14 05:01:02.940, True, 0.664, 0.144961
2023/06/14 05:01:03.436, True, 0.337, 0.146410
2023/06/14 05:01:03.939, True, 0.663, 0.143969
2023/06/14 05:01:04.444, True, 0.331, 0.144503
2023/06/14 05:01:04.940, True, 0.674, 0.144579
2023/06/14 05:01:05.444, True, 0.332, 0.143130
2023/06/14 05:01:05.948, True, 0.663, 0.144198
2023/06/14 05:01:06.452, True, 0.332, 0.145418
2023/06/14 05:01:06.948, True, 0.674, 0.144121
2023/06/14 05:01:07.452, True, 0.332, 0.143893
2023/06/14 05:01:07.956, True, 0.663, 0.144503
2023/06/14 05:01:08.452, True, 0.337, 0.145724
2023/06/14 05:01:08.956, True, 0.663, 0.143511
2023/06/14 05:01:09.460, True, 0.332, 0.143435
2023/06/14 05:01:09.956, True, 0.674, 0.144503
2023/06/14 05:01:10.460, True, 0.332, 0.143511
2023/06/14 05:01:10.963, True, 0.664, 0.143053
2023/06/14 05:01:11.460, True, 0.336, 0.144961
2023/06/14 05:01:11.964, True, 0.663, 0.143359
2023/06/14 05:01:12.468, True, 0.332, 0.147555
2023/06/14 05:01:12.964, True, 0.674, 0.142672
2023/06/14 05:01:13.468, True, 0.663, 0.143969
2023/06/14 05:01:13.972, True, 0.331, 0.143664
2023/06/14 05:01:14.468, True, 0.674, 0.141833
2023/06/14 05:01:14.971, True, 0.331, 0.144732
2023/06/14 05:01:15.476, True, 0.663, 0.142367
2023/06/14 05:01:15.972, True, 0.337, 0.144198
2023/06/14 05:01:16.476, True, 0.663, 0.144808
2023/06/14 05:01:16.980, True, 0.332, 0.143282
2023/06/14 05:01:17.476, True, 0.675, 0.144045
2023/06/14 05:01:17.979, True, 0.331, 0.145953
2023/06/14 05:01:18.484, True, 0.332, 0.143282
2023/06/14 05:01:18.980, True, 0.674, 0.144884
2023/06/14 05:01:19.483, True, 0.332, 0.143053
2023/06/14 05:01:19.987, True, 0.663, 0.143435
2023/06/14 05:01:20.484, True, 0.674, 0.143969
2023/06/14 05:01:20.987, True, 0.332, 0.144808
2023/06/14 05:01:21.491, True, 0.663, 0.145113
2023/06/14 05:01:21.987, True, 0.337, 0.144045
2023/06/14 05:01:22.492, True, 0.663, 0.143740
2023/06/14 05:01:22.996, True, 0.332, 0.143969
2023/06/14 05:01:23.491, True, 0.673, 0.142977
2023/06/14 05:01:23.996, True, 0.332, 0.146563
2023/06/14 05:01:24.492, True, 0.674, 0.144961
2023/06/14 05:01:24.996, True, 0.332, 0.143893
2023/06/14 05:01:25.499, True, 0.663, 0.144198
2023/06/14 05:01:25.995, True, 0.337, 0.146258
2023/06/14 05:01:26.500, True, 0.332, 0.145724
2023/06/14 05:01:27.004, True, 0.662, 0.143130
2023/06/14 05:01:27.508, True, 0.332, 0.144198
2023/06/14 05:01:28.004, True, 0.674, 0.145800
2023/06/14 05:01:28.508, True, 0.331, 0.142138
2023/06/14 05:01:29.004, True, 0.674, 0.148089
2023/06/14 05:01:29.508, True, 0.332, 0.142977
2023/06/14 05:01:30.012, True, 0.663, 0.145724
2023/06/14 05:01:30.508, True, 0.337, 0.146792
2023/06/14 05:01:31.012, True, 0.663, 0.143359
2023/06/14 05:01:31.516, True, 0.332, 0.143435
2023/06/14 05:01:32.019, True, 0.663, 0.146792
2023/06/14 05:01:32.516, True, 0.337, 0.145190
2023/06/14 05:01:33.020, True, 0.332, 0.144656
2023/06/14 05:01:33.524, True, 0.663, 0.145800
2023/06/14 05:01:34.020, True, 0.337, 0.145037
2023/06/14 05:01:34.524, True, 0.664, 0.143359
2023/06/14 05:01:35.028, True, 0.331, 0.143587
2023/06/14 05:01:35.523, True, 0.675, 0.144045
2023/06/14 05:01:36.028, True, 0.331, 0.141909
2023/06/14 05:01:36.532, True, 0.663, 0.146181
2023/06/14 05:01:37.036, True, 0.332, 0.142061
2023/06/14 05:01:37.532, True, 0.674, 0.145571
2023/06/14 05:01:38.036, True, 0.332, 0.145190
2023/06/14 05:01:38.540, True, 0.664, 0.142977
2023/06/14 05:01:39.036, True, 0.337, 0.145266
2023/06/14 05:01:39.540, True, 0.664, 0.144045
2023/06/14 05:01:40.044, True, 0.331, 0.144121
2023/06/14 05:01:40.548, True, 0.663, 0.145571
2023/06/14 05:01:41.043, True, 0.337, 0.146410
2023/06/14 05:01:41.548, True, 0.663, 0.144503
2023/06/14 05:01:42.051, True, 0.331, 0.144732
2023/06/14 05:01:42.547, True, 0.338, 0.144503
2023/06/14 05:01:43.052, True, 0.662, 0.144274
2023/06/14 05:01:43.555, True, 0.332, 0.143969
2023/06/14 05:01:44.051, True, 0.673, 0.143511
2023/06/14 05:01:44.556, True, 0.332, 0.143282
2023/06/14 05:01:45.060, True, 0.663, 0.146639
2023/06/14 05:01:45.555, True, 0.337, 0.145876
2023/06/14 05:01:46.060, True, 0.663, 0.148775
2023/06/14 05:01:46.564, True, 0.332, 0.146258
2023/06/14 05:01:47.060, True, 0.337, 0.145495
2023/06/14 05:01:47.564, True, 0.663, 0.148013
2023/06/14 05:01:48.067, True, 0.332, 0.147173
2023/06/14 05:01:48.564, True, 0.673, 0.146334
2023/06/14 05:01:49.068, True, 0.332, 0.148241
2023/06/14 05:01:49.572, True, 0.663, 0.146258
2023/06/14 05:01:50.067, True, 0.337, 0.145113
2023/06/14 05:01:50.571, True, 0.332, 0.147936
2023/06/14 05:01:51.076, True, 0.664, 0.148241
2023/06/14 05:01:51.572, True, 0.337, 0.147784
2023/06/14 05:01:52.076, True, 0.332, 0.148013
2023/06/14 05:01:52.572, True, 0.674, 0.147555
2023/06/14 05:01:53.076, True, 0.332, 0.147173
2023/06/14 05:01:53.580, True, 0.663, 0.147936
2023/06/14 05:01:54.076, True, 0.337, 0.146410
2023/06/14 05:01:54.580, True, 0.663, 0.147021
2023/06/14 05:01:55.083, True, 0.331, 0.148089
2023/06/14 05:01:55.580, True, 0.337, 0.150835
2023/06/14 05:01:56.084, True, 0.663, 0.149157
2023/06/14 05:01:56.588, True, 0.332, 0.147860
2023/06/14 05:01:57.084, True, 0.674, 0.147784
2023/06/14 05:01:57.588, True, 0.332, 0.151064
2023/06/14 05:01:58.091, True, 0.663, 0.151293
2023/06/14 05:01:58.588, True, 0.337, 0.150225
2023/06/14 05:01:59.092, True, 0.663, 0.150683
2023/06/14 05:01:59.596, True, 0.332, 0.151446
2023/06/14 05:02:00.091, True, 0.674, 0.150683
2023/06/14 05:02:00.596, True, 0.332, 0.151369
2023/06/14 05:02:01.092, True, 0.674, 0.150149
2023/06/14 05:02:01.595, True, 0.332, 0.149462
2023/06/14 05:02:02.099, True, 0.663, 0.151522
2023/06/14 05:02:02.604, True, 0.332, 0.153353
2023/06/14 05:02:03.100, True, 0.337, 0.150072
2023/06/14 05:02:03.604, True, 0.663, 0.151293
2023/06/14 05:02:04.108, True, 0.332, 0.151446
2023/06/14 05:02:04.604, True, 0.673, 0.151446
2023/06/14 05:02:05.108, True, 0.332, 0.152438
2023/06/14 05:02:05.612, True, 0.663, 0.152895
2023/06/14 05:02:06.108, True, 0.674, 0.151369
2023/06/14 05:02:06.612, True, 0.332, 0.152819
2023/06/14 05:02:07.115, True, 0.332, 0.152743
2023/06/14 05:02:07.620, True, 0.663, 0.151446
2023/06/14 05:02:08.115, True, 0.337, 0.152285
2023/06/14 05:02:08.620, True, 0.332, 0.153658
2023/06/14 05:02:09.124, True, 0.663, 0.152056
2023/06/14 05:02:09.620, True, 0.337, 0.152743
2023/06/14 05:02:10.123, True, 0.664, 0.153429
2023/06/14 05:02:10.627, True, 0.331, 0.153964
2023/06/14 05:02:11.124, True, 0.674, 0.155261
2023/06/14 05:02:11.628, True, 0.332, 0.152056
2023/06/14 05:02:12.132, True, 0.663, 0.155261
2023/06/14 05:02:12.628, True, 0.337, 0.153887
2023/06/14 05:02:13.132, True, 0.663, 0.154345
2023/06/14 05:02:13.636, True, 0.332, 0.154574
2023/06/14 05:02:14.139, True, 0.331, 0.153887
2023/06/14 05:02:14.636, True, 0.673, 0.154192
2023/06/14 05:02:15.139, True, 0.332, 0.156710
2023/06/14 05:02:15.644, True, 0.663, 0.152438
2023/06/14 05:02:16.139, True, 0.337, 0.154192
2023/06/14 05:02:16.644, True, 0.663, 0.155261
2023/06/14 05:02:17.148, True, 0.332, 0.155108
2023/06/14 05:02:17.643, True, 0.337, 0.154574
2023/06/14 05:02:18.147, True, 0.664, 0.155871
2023/06/14 05:02:18.652, True, 0.331, 0.155337
2023/06/14 05:02:19.147, True, 0.674, 0.154269
2023/06/14 05:02:19.652, True, 0.332, 0.155489
2023/06/14 05:02:20.155, True, 0.663, 0.154116
2023/06/14 05:02:20.659, True, 0.331, 0.153658
2023/06/14 05:02:21.156, True, 0.675, 0.154040
2023/06/14 05:02:21.660, True, 0.331, 0.153735
2023/06/14 05:02:22.163, True, 0.332, 0.151293
2023/06/14 05:02:22.660, True, 0.674, 0.155489
2023/06/14 05:02:23.164, True, 0.332, 0.155184
2023/06/14 05:02:23.668, True, 0.663, 0.154345
2023/06/14 05:02:24.163, True, 0.337, 0.153964
2023/06/14 05:02:24.668, True, 0.332, 0.152209
2023/06/14 05:02:25.171, True, 0.665, 0.154726
2023/06/14 05:02:25.668, True, 0.336, 0.153353
2023/06/14 05:02:26.171, True, 0.664, 0.155642
2023/06/14 05:02:26.675, True, 0.331, 0.155184
2023/06/14 05:02:27.179, True, 0.663, 0.154269
2023/06/14 05:02:27.676, True, 0.337, 0.153048
2023/06/14 05:02:28.179, True, 0.332, 0.155032
2023/06/14 05:02:28.676, True, 0.674, 0.154726
2023/06/14 05:02:29.179, True, 0.332, 0.155871
2023/06/14 05:02:29.684, True, 0.663, 0.153277
2023/06/14 05:02:30.179, True, 0.337, 0.155108
2023/06/14 05:02:30.684, True, 0.332, 0.155032
2023/06/14 05:02:31.187, True, 0.663, 0.153582
2023/06/14 05:02:31.684, True, 0.337, 0.155489
2023/06/14 05:02:32.187, True, 0.662, 0.154421
2023/06/14 05:02:32.691, True, 0.332, 0.156252
2023/06/14 05:02:33.196, True, 0.332, 0.154192
2023/06/14 05:02:33.691, True, 0.674, 0.157549
2023/06/14 05:02:34.195, True, 0.332, 0.154345
2023/06/14 05:02:34.700, True, 0.663, 0.153735
2023/06/14 05:02:35.196, True, 0.337, 0.154345
2023/06/14 05:02:35.699, True, 0.331, 0.156634
2023/06/14 05:02:36.203, True, 0.664, 0.154345
2023/06/14 05:02:36.699, True, 0.337, 0.155871
2023/06/14 05:02:37.203, True, 0.663, 0.155032
2023/06/14 05:02:37.707, True, 0.332, 0.153964
2023/06/14 05:02:38.203, True, 0.337, 0.155795
2023/06/14 05:02:38.708, True, 0.663, 0.155871
2023/06/14 05:02:39.211, True, 0.332, 0.156023
2023/06/14 05:02:39.707, True, 0.675, 0.154726
2023/06/14 05:02:40.211, True, 0.331, 0.154192
2023/06/14 05:02:40.715, True, 0.332, 0.157168
2023/06/14 05:02:41.219, True, 0.663, 0.155642
2023/06/14 05:02:41.715, True, 0.337, 0.155261
2023/06/14 05:02:42.219, True, 0.663, 0.155871
2023/06/14 05:02:42.723, True, 0.663, 0.156329
2023/06/14 05:02:43.219, True, 0.337, 0.154879
2023/06/14 05:02:43.724, True, 0.663, 0.153201
2023/06/14 05:02:44.227, True, 0.332, 0.155642
2023/06/14 05:02:44.723, True, 0.337, 0.153353
2023/06/14 05:02:45.227, True, 0.662, 0.155642
2023/06/14 05:02:45.731, True, 0.332, 0.154803
2023/06/14 05:02:46.227, True, 0.337, 0.156786
2023/06/14 05:02:46.731, True, 0.663, 0.156329
2023/06/14 05:02:47.235, True, 0.332, 0.156710
2023/06/14 05:02:47.732, True, 0.674, 0.155642
2023/06/14 05:02:48.235, True, 0.332, 0.154116
2023/06/14 05:02:48.739, True, 0.664, 0.155413
2023/06/14 05:02:49.243, True, 0.331, 0.153964
2023/06/14 05:02:49.739, True, 0.337, 0.155947
2023/06/14 05:02:50.243, True, 0.663, 0.152895
2023/06/14 05:02:50.748, True, 0.332, 0.154726
2023/06/14 05:02:51.243, True, 0.337, 0.155871
2023/06/14 05:02:51.748, True, 0.662, 0.153964
2023/06/14 05:02:52.251, True, 0.332, 0.153811
2023/06/14 05:02:52.755, True, 0.663, 0.153735
2023/06/14 05:02:53.250, True, 0.337, 0.153658
2023/06/14 05:02:53.756, True, 0.663, 0.157244
2023/06/14 05:02:54.251, True, 0.337, 0.154650
2023/06/14 05:02:54.755, True, 0.664, 0.154726
2023/06/14 05:02:55.259, True, 0.332, 0.154574
2023/06/14 05:02:55.756, True, 0.337, 0.156863
2023/06/14 05:02:56.260, True, 0.665, 0.155871
2023/06/14 05:02:56.763, True, 0.331, 0.155947
2023/06/14 05:02:57.260, True, 0.674, 0.154345
2023/06/14 05:02:57.763, True, 0.332, 0.156100
2023/06/14 05:02:58.267, True, 0.663, 0.155871
2023/06/14 05:02:58.771, True, 0.332, 0.155261
2023/06/14 05:02:59.267, True, 0.336, 0.155413
2023/06/14 05:02:59.771, True, 0.664, 0.156710
2023/06/14 05:03:00.275, True, 0.331, 0.157015
2023/06/14 05:03:00.772, True, 0.673, 0.153506
2023/06/14 05:03:01.275, True, 0.332, 0.153811
2023/06/14 05:03:01.779, True, 0.331, 0.155413
2023/06/14 05:03:02.275, True, 0.674, 0.154803
2023/06/14 05:03:02.779, True, 0.331, 0.156786
2023/06/14 05:03:03.283, True, 0.665, 0.153964
2023/06/14 05:03:03.779, True, 0.336, 0.155413
2023/06/14 05:03:04.283, True, 0.664, 0.155871
2023/06/14 05:03:04.787, True, 0.331, 0.152361
2023/06/14 05:03:05.283, True, 0.337, 0.156481
2023/06/14 05:03:05.787, True, 0.663, 0.154726
2023/06/14 05:03:06.283, True, 0.337, 0.153887
2023/06/14 05:03:06.787, True, 0.332, 0.153887
2023/06/14 05:03:07.291, True, 0.663, 0.155108
2023/06/14 05:03:07.788, True, 0.337, 0.154803
2023/06/14 05:03:08.291, True, 0.663, 0.154269
2023/06/14 05:03:08.795, True, 0.332, 0.155108
2023/06/14 05:03:09.291, True, 0.673, 0.152743
2023/06/14 05:03:09.795, True, 0.332, 0.156939
2023/06/14 05:03:10.299, True, 0.332, 0.155795
2023/06/14 05:03:10.795, True, 0.674, 0.153582
2023/06/14 05:03:11.299, True, 0.332, 0.155108
2023/06/14 05:03:11.803, True, 0.663, 0.153887
2023/06/14 05:03:12.299, True, 0.337, 0.153658
2023/06/14 05:03:12.803, True, 0.332, 0.156558
2023/06/14 05:03:13.307, True, 0.663, 0.158389
2023/06/14 05:03:13.804, True, 0.337, 0.155108
2023/06/14 05:03:14.307, True, 0.663, 0.155337
2023/06/14 05:03:14.812, True, 0.332, 0.154345
2023/06/14 05:03:15.307, True, 0.337, 0.154803
2023/06/14 05:03:15.811, True, 0.663, 0.156100
2023/06/14 05:03:16.315, True, 0.332, 0.155413
2023/06/14 05:03:16.811, True, 0.674, 0.153964
2023/06/14 05:03:17.315, True, 0.332, 0.154803
2023/06/14 05:03:17.819, True, 0.332, 0.156558
2023/06/14 05:03:18.316, True, 0.337, 0.156710
2023/06/14 05:03:18.819, True, 0.663, 0.154421
2023/06/14 05:03:19.324, True, 0.663, 0.155184
2023/06/14 05:03:19.819, True, 0.337, 0.152895
2023/06/14 05:03:20.323, True, 0.663, 0.153124
2023/06/14 05:03:20.827, True, 0.332, 0.154116
2023/06/14 05:03:21.323, True, 0.337, 0.153811
2023/06/14 05:03:21.828, True, 0.663, 0.155337
2023/06/14 05:03:22.331, True, 0.332, 0.153429
2023/06/14 05:03:22.828, True, 0.672, 0.155032
2023/06/14 05:03:23.332, True, 0.332, 0.157778
2023/06/14 05:03:23.827, True, 0.674, 0.153277
2023/06/14 05:03:24.331, True, 0.332, 0.157092
2023/06/14 05:03:24.835, True, 0.663, 0.156176
2023/06/14 05:03:25.339, True, 0.332, 0.155337
2023/06/14 05:03:25.835, True, 0.674, 0.153277
2023/06/14 05:03:26.339, True, 0.332, 0.154345
2023/06/14 05:03:26.843, True, 0.664, 0.155947
2023/06/14 05:03:27.339, True, 0.337, 0.156863
2023/06/14 05:03:27.843, True, 0.332, 0.156558
2023/06/14 05:03:28.347, True, 0.663, 0.153735
2023/06/14 05:03:28.843, True, 0.337, 0.154650
2023/06/14 05:03:29.347, True, 0.663, 0.151522
2023/06/14 05:03:29.851, True, 0.331, 0.155108
2023/06/14 05:03:30.347, True, 0.337, 0.153658
2023/06/14 05:03:30.851, True, 0.663, 0.155795
2023/06/14 05:03:31.355, True, 0.332, 0.157321
2023/06/14 05:03:31.851, True, 0.674, 0.154421
2023/06/14 05:03:32.355, True, 0.332, 0.153048
2023/06/14 05:03:32.859, True, 0.332, 0.154498
2023/06/14 05:03:33.355, True, 0.674, 0.153735
2023/06/14 05:03:33.859, True, 0.331, 0.154803
2023/06/14 05:03:34.363, True, 0.332, 0.154421
2023/06/14 05:03:34.867, True, 0.663, 0.155642
2023/06/14 05:03:35.363, True, 0.337, 0.153506
2023/06/14 05:03:35.867, True, 0.663, 0.158389
2023/06/14 05:03:36.363, True, 0.338, 0.154345
2023/06/14 05:03:36.867, True, 0.662, 0.154955
2023/06/14 05:03:37.371, True, 0.332, 0.154955
2023/06/14 05:03:37.875, True, 0.332, 0.155261
2023/06/14 05:03:38.371, True, 0.336, 0.154345
2023/06/14 05:03:38.875, True, 0.663, 0.154116
2023/06/14 05:03:39.379, True, 0.332, 0.154650
2023/06/14 05:03:39.875, True, 0.674, 0.155337
2023/06/14 05:03:40.379, True, 0.332, 0.156329
2023/06/14 05:03:40.883, True, 0.332, 0.154726
2023/06/14 05:03:41.379, True, 0.674, 0.155642
2023/06/14 05:03:41.883, True, 0.332, 0.153048
2023/06/14 05:03:42.387, True, 0.332, 0.154421
2023/06/14 05:03:42.883, True, 0.674, 0.153353
2023/06/14 05:03:43.387, True, 0.332, 0.151827
2023/06/14 05:03:43.891, True, 0.663, 0.155795
2023/06/14 05:03:44.387, True, 0.337, 0.157092
2023/06/14 05:03:44.891, True, 0.332, 0.154955
2023/06/14 05:03:45.387, True, 0.674, 0.152667
2023/06/14 05:03:45.891, True, 0.332, 0.154955
2023/06/14 05:03:46.395, True, 0.663, 0.153964
2023/06/14 05:03:46.891, True, 0.337, 0.154192
2023/06/14 05:03:47.395, True, 0.332, 0.153429
2023/06/14 05:03:47.899, True, 0.664, 0.154345
2023/06/14 05:03:48.395, True, 0.337, 0.154574
2023/06/14 05:03:48.899, True, 0.663, 0.154955
2023/06/14 05:03:49.395, True, 0.337, 0.154040
2023/06/14 05:03:49.899, True, 0.332, 0.154803
2023/06/14 05:03:50.403, True, 0.663, 0.155032
2023/06/14 05:03:50.899, True, 0.337, 0.153582
2023/06/14 05:03:51.403, True, 0.332, 0.154879
2023/06/14 05:03:51.908, True, 0.663, 0.153887
2023/06/14 05:03:52.403, True, 0.337, 0.155032
2023/06/14 05:03:52.907, True, 0.663, 0.154574
2023/06/14 05:03:53.412, True, 0.332, 0.153964
2023/06/14 05:03:53.907, True, 0.337, 0.156176
2023/06/14 05:03:54.411, True, 0.663, 0.154192
2023/06/14 05:03:54.915, True, 0.332, 0.154192
2023/06/14 05:03:55.411, True, 0.674, 0.154726
2023/06/14 05:03:55.915, True, 0.332, 0.154421
2023/06/14 05:03:56.419, True, 0.663, 0.155108
2023/06/14 05:03:56.915, True, 0.337, 0.155642
2023/06/14 05:03:57.419, True, 0.664, 0.154498
2023/06/14 05:03:57.923, True, 0.331, 0.153048
2023/06/14 05:03:58.419, True, 0.337, 0.156634
2023/06/14 05:03:58.923, True, 0.663, 0.156558
2023/06/14 05:03:59.427, True, 0.332, 0.153735
2023/06/14 05:03:59.931, True, 0.662, 0.153887
2023/06/14 05:04:00.427, True, 0.337, 0.154269
2023/06/14 05:04:00.931, True, 0.332, 0.155261
2023/06/14 05:04:01.435, True, 0.663, 0.152667
2023/06/14 05:04:01.931, True, 0.337, 0.153277
2023/06/14 05:04:02.435, True, 0.664, 0.155337
2023/06/14 05:04:02.939, True, 0.331, 0.155184
2023/06/14 05:04:03.435, True, 0.674, 0.152743
2023/06/14 05:04:03.939, True, 0.332, 0.154955
2023/06/14 05:04:04.443, True, 0.332, 0.155032
2023/06/14 05:04:04.939, True, 0.674, 0.154879
2023/06/14 05:04:05.443, True, 0.332, 0.152514
2023/06/14 05:04:05.939, True, 0.337, 0.153353
2023/06/14 05:04:06.443, True, 0.663, 0.153201
2023/06/14 05:04:06.947, True, 0.332, 0.154726
2023/06/14 05:04:07.443, True, 0.673, 0.153277
2023/06/14 05:04:07.947, True, 0.332, 0.154574
2023/06/14 05:04:08.451, True, 0.331, 0.155871
2023/06/14 05:04:08.947, True, 0.674, 0.155032
2023/06/14 05:04:09.451, True, 0.332, 0.155718
2023/06/14 05:04:09.955, True, 0.332, 0.151598
2023/06/14 05:04:10.451, True, 0.674, 0.152285
2023/06/14 05:04:10.954, True, 0.332, 0.156634